"Pseudo-MPEC" for CE9TDP2

Created 2026 Mar 9 21:35:18 UT using Find_Orb

Click here for an explanation of pseudo-MPECs

 
 Astrometry: 
     CE9TDP2*1C2026 03 08.17072709 16 50.315+10 48 22.82   ~384o 20.08GVNEOCPG96
     CE9TDP2 1C2026 03 08.17634109 16 47.320+10 46 55.70   ~384o 20.28GVNEOCPG96
     CE9TDP2 1C2026 03 08.18196109 16 44.288+10 45 28.33   ~384o 19.94GVNEOCPG96
     CE9TDP2 1C2026 03 08.18756809 16 41.236+10 44 02.29   ~384o 20.57GVNEOCPG96
     CE9TDP2  C2026 03 08.20684609 16 30.426+10 38 59.88   ~3875 20.0 GWNEOCPH01
     CE9TDP2  C2026 03 08.21157009 16 27.864+10 37 46.44   ~3875 19.8 GWNEOCPH01
     CE9TDP2  C2026 03 08.22022209 16 23.185+10 35 32.15   ~3875 19.7 GWNEOCPH01
     CE9TDP2  C2026 03 08.22892609 16 18.475+10 33 17.07   ~3875 19.8 GWNEOCPH01
     CE9TDP2 1C2026 03 08.29638109 15 42.466+10 15 53.10   ~387Z 20.03GVNEOCPI52
     CE9TDP2 1C2026 03 08.29734709 15 41.951+10 15 38.23   ~387Z       VNEOCPI52
     CE9TDP2 1C2026 03 08.29831609 15 41.458+10 15 23.29   ~387Z 20.20GVNEOCPI52
     CE9TDP2 1C2026 03 08.29928309 15 40.936+10 15 07.92   ~387Z 20.78GVNEOCPI52
     CE9TDP2 KB2026 03 08.83409 09 11 21.26 +07 58 51.6    ~38KZ 20.4 GXNEOCPM45
     CE9TDP2 KB2026 03 08.83934 09 11 18.60 +07 57 32.6    ~38KZ 20.3 GXNEOCPM45
     CE9TDP2 KB2026 03 08.84446 09 11 15.98 +07 56 16.0    ~38KZ 20.2 GXNEOCPM45
     CE9TDP2 0B2026 03 08.84573409 11 16.700+07 55 55.05   ~3935 20.5 GWNEOCP204
     CE9TDP2 0B2026 03 08.85745409 11 10.755+07 52 58.89   ~3935       WNEOCP204
     CE9TDP2 KC2026 03 08.94241 09 10 26.83 +07 31 45.2    ~3915 20.2 GZNEOCPL04
     CE9TDP2 KC2026 03 08.94534 09 10 25.34 +07 31 01.0    ~3915 19.9 GZNEOCPL04
     CE9TDP2 |C2026 03 09.00451009 10 03.430+07 18 16.70   ~390Z 20.2 GVNEOCP807
     CE9TDP2 |C2026 03 09.00749009 10 01.940+07 17 32.70   ~390Z 20.3 GVNEOCP807
     CE9TDP2 |C2026 03 09.01048009 10 00.430+07 16 47.90   ~390Z 19.9 GVNEOCP807
     CE9TDP2 KC2026 03 09.08306009 09 25.28 +06 57 01.0    ~392Z 20.5 GVNEOCPH21
     CE9TDP2 KC2026 03 09.08595309 09 23.84 +06 56 18.2    ~392Z 20.3 GVNEOCPH21
     CE9TDP2  C2026 03 09.25789809 08 01.217+06 14 06.82   ~397K 20.19GVNEOCPU74
     CE9TDP2  C2026 03 09.26117209 07 59.723+06 13 20.11   ~397K 20.19GVNEOCPU74

Station data:
(204) Schiaparelli Observatory  (N45.868292 E8.769720)  Italy.  Observer L.
   Buzzi. 0.84-m f/3.5 reflector + CCD.
(807) Cerro Tololo Observatory, La Serena  (S30.169133 W70.805900)  Chile.
   Observer R. Holmes. 0.61-m f/6.5 astrograph + CCD.
(G96) Mt. Lemmon Survey  (N32.442729 W110.788720)  US/Arizona.  Observer E.
   J. Christensen. Measurers T. Beuden, V. F. Carvajal, D. Fay, J. B.
   Fazekas, D. C. Fuls, A. R. Gibbs, A. D. Grauer, H. Gröller, J. K. Hogan,
   R. A. Kowalski, S. M. Larson, G. J. Leonard, D. Rankin, R. L. Seaman, F.
   C. Shelly, K. W. Wierzchoś. 1.5-m reflector + 10K CCD.
(H01) Magdalena Ridge Observatory, Socorro  (N33.984833 W107.189333)  US/New
   Mexico.  Observers W. H. Ryan, E. V. Ryan. Measurer W. H. Ryan. 2.4-m
   f/8.9 reflector + CCD.
(H21) Astronomical Research Observatory, Westfield  (N39.483054 W87.968270)
   US/Illinois.  Observer R. Holmes. Measurers S. Foglia, L. Buzzi, T.
   Linder, R. Holmes. 0.40-m f/5.32 astrograph + CCD.
(I52) Steward Observatory, Mt. Lemmon Station  (N32.442570 W110.788920)
   US/Arizona. Measurers T. Beuden, V. F. Carvajal, D. Fay, J. B. Fazekas, D.
   C. Fuls, A. R. Gibbs, A. D. Grauer, H. Gröller, J. K. Hogan, R. A.
   Kowalski, S. M. Larson, G. J. Leonard, D. Rankin, R. L. Seaman, F. C.
   Shelly, K. W. Wierzchoś. 1.0-m prime focus + CCD.
(L04) ROASTERR-1 Observatory, Cluj-Napoca  (N46.820952 E23.596400)  Romania.
   Observer L. Hudin. 0.1-m f/9 refractor + CCD.
(M45) Starhopper Observatory, Sfantu Gheorghe  (N45.865494 E25.768890)
   Romania.  Observer F. Ursache. 0.41-m f/7.5 reflector + CMO.
(U74) JPL SynTrack Robotic Telescope 2, Auberry  (N37.070341 W119.412800)
   US/California.  Observers N. Saini, C. Zhai, R. Trahan, M. Zhan, M. Shao.
   0.36-m f/2.2 Schmidt.

Orbital elements:  CE9TDP2
   Perihelion 2026 Feb 13.016884 +/- 0.307 TT =  0:24:18.8 (JD 2461084.516884)
Epoch 2026 Mar  9.0 TT = JDT 2461108.5   Earth MOID: 0.0785   Ma: 0.0888
M  18.410401983 +/- 0.25            (J2000 ecliptic)             AutoNEOCP
n   0.767640131 +/- 0.00127         Peri.  159.206168 +/- 0.28
a   1.181311056 +/- 0.0013          Node   344.108976 +/- 0.0051
e   0.09931484 +/- 0.000778         Incl.   25.628531 +/- 0.06
P   1.284/468.961d         H 24.29  G  0.15   U  8.3
q 1.063989327 +/- 0.000274    Q 1.298632784 +/- 0.00235
From 26 observations 2026 Mar. 8-9 (26.2 hr); mean residual 0".39
Residuals in arcseconds: 
260308 G96  .49-  .08+    260308 I52  .17-  .21-    260308 L04  .53-  .31+    
260308 G96  .15+  .10+    260308 I52  .21+  .13-    260309 807  .22+  .17-    
260308 G96  .31+  .05-    260308 I52  .14+  .51-    260309 807  .19+  .09+    
260308 G96  .09+  .93+    260308 M45  .10-  .55+    260309 807  .04-  .31-    
260308 H01  .06+  .00     260308 M45  .01-  .47+    260309 H21  .10+  .26-    
260308 H01  .00   .11-    260308 M45  .32-  .82+    260309 H21  .05+  .25-    
260308 H01  .05+  .11-    260308 204  .23+  .54-    260309 U74  .86-  .67-    
260308 H01  .01+  .09-    260308 204  .04+  .81-    260309 U74  .97+  .65+    
260308 I52  .20-  .32-    260308 L04  .08-  .64+    

Ephemerides (geocentric):
Date (UTC) HH   RA             Dec           delta  r     elong  mag " sig PA
---- --------  ------------   ------------  ------ ------ -----  --- --------
2026 03 09 22  09 03 06.375   +03 37 18.44  .09367 1.0719 146.0 20.6 .079 101
2026 03 09 23  09 02 48.285   +03 27 34.17  .09381 1.0719 145.9 20.6 .080  98
2026 03 10 00  09 02 30.264   +03 17 51.60  .09395 1.0720 145.7 20.6 .082  94
2026 03 10 01  09 02 12.310   +03 08 10.74  .09409 1.0720 145.6 20.7 .084  91
2026 03 10 02  09 01 54.423   +02 58 31.59  .09423 1.0720 145.5 20.7 .087  87
2026 03 10 03  09 01 36.603   +02 48 54.15  .09437 1.0720 145.4 20.7 .090  84
2026 03 10 04  09 01 18.850   +02 39 18.45  .09451 1.0721 145.3 20.7 .093  81
2026 03 10 05  09 01 01.163   +02 29 44.47  .09465 1.0721 145.1 20.7 .096  78
2026 03 10 06  09 00 43.543   +02 20 12.22  .09480 1.0721 145.0 20.7 .099  76
2026 03 10 07  09 00 25.989   +02 10 41.71  .09494 1.0721 144.9 20.7 .103  73
2026 03 10 08  09 00 08.501   +02 01 12.95  .09509 1.0722 144.8 20.7 .107  71
2026 03 10 09  08 59 51.078   +01 51 45.93  .09523 1.0722 144.7 20.7 .111  68
2026 03 10 10  08 59 33.721   +01 42 20.67  .09538 1.0722 144.5 20.7 .116  66
2026 03 10 11  08 59 16.429   +01 32 57.17  .09553 1.0722 144.4 20.7 .120  64
2026 03 10 12  08 58 59.202   +01 23 35.42  .09568 1.0723 144.3 20.7 .125  62
2026 03 10 13  08 58 42.040   +01 14 15.44  .09583 1.0723 144.2 20.7 .130  61
2026 03 10 14  08 58 24.942   +01 04 57.22  .09598 1.0723 144.0 20.7 .135  59
2026 03 10 15  08 58 07.909   +00 55 40.78  .09613 1.0724 143.9 20.7 .140  57
2026 03 10 16  08 57 50.940   +00 46 26.11  .09629 1.0724 143.8 20.8 .146  56
2026 03 10 17  08 57 34.035   +00 37 13.22  .09644 1.0724 143.7 20.8 .151  55
2026 03 10 18  08 57 17.193   +00 28 02.11  .09659 1.0724 143.5 20.8 .157  53
2026 03 10 19  08 57 00.415   +00 18 52.78  .09675 1.0725 143.4 20.8 .163  52
2026 03 10 20  08 56 43.700   +00 09 45.24  .09691 1.0725 143.3 20.8 .169  51
2026 03 10 21  08 56 27.049   +00 00 39.49  .09706 1.0725 143.2 20.8 .175  50
2026 03 10 22  08 56 10.460   -00 08 24.47  .09722 1.0725 143.1 20.8 .181  49
2026 03 10 23  08 55 53.933   -00 17 26.64  .09738 1.0726 142.9 20.8 .187  48
2026 03 11 00  08 55 37.469   -00 26 27.02  .09754 1.0726 142.8 20.8 .194  47
2026 03 11 01  08 55 21.067   -00 35 25.60  .09770 1.0726 142.7 20.8 .200  46
2026 03 11 02  08 55 04.728   -00 44 22.38  .09786 1.0727 142.6 20.8 .207  45
2026 03 11 03  08 54 48.449   -00 53 17.36  .09803 1.0727 142.4 20.8 .213  44
2026 03 11 04  08 54 32.233   -01 02 10.54  .09819 1.0727 142.3 20.8 .220  43
2026 03 11 05  08 54 16.078   -01 11 01.91  .09835 1.0727 142.2 20.8 .227  43
2026 03 11 06  08 53 59.984   -01 19 51.49  .09852 1.0728 142.1 20.8 .233  42
2026 03 11 07  08 53 43.950   -01 28 39.26  .09868 1.0728 142.0 20.9 .240  41
2026 03 11 08  08 53 27.978   -01 37 25.22  .09885 1.0728 141.8 20.9 .247  41
2026 03 11 09  08 53 12.066   -01 46 09.38  .09902 1.0728 141.7 20.9 .254  40
2026 03 11 10  08 52 56.214   -01 54 51.73  .09919 1.0729 141.6 20.9 .261  39
2026 03 11 11  08 52 40.422   -02 03 32.28  .09936 1.0729 141.5 20.9 .269  39
2026 03 11 12  08 52 24.690   -02 12 11.01  .09953 1.0729 141.3 20.9 .276  38
2026 03 11 13  08 52 09.018   -02 20 47.95  .09970 1.0730 141.2 20.9 .283  38
2026 03 11 14  08 51 53.405   -02 29 23.07  .09987 1.0730 141.1 20.9 .290  37
2026 03 11 15  08 51 37.851   -02 37 56.39  .10004 1.0730 141.0 20.9 .298  37
2026 03 11 16  08 51 22.356   -02 46 27.90  .10021 1.0730 140.9 20.9 .305  36
2026 03 11 17  08 51 06.920   -02 54 57.61  .10039 1.0731 140.7 20.9 .313  36
2026 03 11 18  08 50 51.543   -03 03 25.51  .10056 1.0731 140.6 20.9 .320  35
2026 03 11 19  08 50 36.224   -03 11 51.60  .10074 1.0731 140.5 20.9 .328  35
2026 03 11 20  08 50 20.963   -03 20 15.89  .10091 1.0731 140.4 20.9 .335  35
2026 03 11 21  08 50 05.761   -03 28 38.38  .10109 1.0732 140.2 20.9 .343  34